Regional Weather Roundup
Issued by NWS

Home | Current Version | Previous Version | Text Only | Print | Product List | Glossary Off
Versions: 1 2 3 4 5 6 7 8 9 10 11 12 13 14 15 16 17 18 19 20 21 22 23 24 25 26 27 28 29 30 31 32 33 34 35 36 37 38 39 40 41 42 43 44 45 46 47 48 49 50

000
ASUS43 KLMK 230502
RWRKY
KENTUCKY REGIONAL WEATHER ROUNDUP
NATIONAL WEATHER SERVICE LOUISVILLE KY
100 AM EDT SAT AUG 23 2014

NOTE "FAIR" INDICATES FEW OR NO CLOUDS BELOW 12,000 FEET
WITH NO SIGNIFICANT WEATHER AND/OR OBSTRUCTIONS TO VISIBILITY.

KYZ001>023-026-027-061>063-070>075-230600-
WESTERN AND SOUTH CENTRAL KENTUCKY

CITY           SKY/WX    TMP DP  RH WIND       PRES   REMARKS
PADUCAH        PTCLDY    83  75  77 SW5       29.97F HX  90
HENDERSON      MOCLDY    79  73  83 E5        29.98R
OWENSBORO      LGT RAIN  81  79  94 E6        30.01R HX  90
HOPKINSVILLE   PTCLDY    79  78  95 S3        30.00F
BOWLING GREEN  CLOUDY    80  73  79 SW3       30.00F
GLASGOW        MOCLDY    76  71  85 CALM      30.02S
$$

KYZ024-025-028>034-038-045-046-053-230600-
NORTH CENTRAL KENTUCKY

CITY           SKY/WX    TMP DP  RH WIND       PRES   REMARKS
LOUISVILLE/SDF MOCLDY    75  72  90 CALM      30.00S
LOUISVILLE/LOU MOCLDY    74  72  93 CALM      30.01S
FORT KNOX      CLOUDY    73  73 100 SE2       30.00F
$$

KYZ035>037-039>044-047>052-055>060-089>105-230600-
NORTHEAST KENTUCKY

CITY           SKY/WX    TMP DP  RH WIND       PRES   REMARKS
LEXINGTON      MOCLDY    74  70  87 SW3       30.02F
COVINGTON      CLOUDY    77  71  82 CALM      30.01S
FRANKFORT      MOCLDY    72  69  90 CALM      30.01F
$$

KYZ054-064>069-076>088-106>120-230600-
SOUTHEAST KENTUCKY

CITY           SKY/WX    TMP DP  RH WIND       PRES   REMARKS
JACKSON        CLOUDY    71  69  93 CALM      30.05S
LONDON         CLOUDY    78  72  81 CALM      30.04F
SOMERSET       CLOUDY    73  73 100 CALM      30.04S
MIDDLESBORO    CLOUDY    73  71  95 CALM      30.05F
MONTICELLO     CLOUDY    73  72  97 CALM      30.05F
$$



USA.gov is the U.S. government's official web portal to all federal, state and local government web resources and services.